Location: Kuppenheim
(48.8299°N, 8.2568°E)
Time: 14:46:23
(UTC+00:00)

NOSS 3-1 (A) - Pass Details

Date: 20 June 2021
Orbit: 729 x 1483 km, 63.4° (Epoch: 23 July)

Event Time Altitude Azimuth Distance (km) Brightness Sun altitude
Exits shadow 00:42:42 20° 228° (SW) 1,794 4.4 -15.9°
Maximum altitude 00:46:34 79° 313° (NW) 906 3.4 -15.7°
Drops below altitude 10° 00:53:03 10° 41° (NE) 2,809 7.0 -15.3°
Sets 00:55:55 0° 43° (NE) 3,885 8.0 -15.1°
